N4183N KOPF-X51

Flight info

Callsign N4183N
Flight time N/A
Altitude 3000
Route HOLMU
Aircraft C182/L-VGDW/C

Departure

Time 2026-05-05 23:30
Airport Miami-Opa Locka Executive Airport (KOPF)

Arrival

Time N/A
Airport X51
Time Latitude Longitude Altitude Speed Heading
2026-05-05 23:24 25.91122 -80.26515 12 ft 0 kts 272°
2026-05-05 23:25 25.91125 -80.26522 12 ft 2 kts 304°
2026-05-05 23:26 25.91166 -80.26535 11 ft 12 kts 326°
2026-05-05 23:26 25.91179 -80.26643 14 ft 17 kts 267°
2026-05-05 23:26 25.91172 -80.26793 17 ft 22 kts 266°
2026-05-05 23:26 25.91163 -80.26985 16 ft 27 kts 269°
2026-05-05 23:27 25.91153 -80.27202 18 ft 30 kts 265°
2026-05-05 23:27 25.91138 -80.27446 14 ft 34 kts 266°
2026-05-05 23:27 25.91126 -80.27716 13 ft 35 kts 265°
2026-05-05 23:27 25.91110 -80.27991 10 ft 36 kts 265°
2026-05-05 23:28 25.91097 -80.28265 13 ft 36 kts 266°
2026-05-05 23:28 25.91080 -80.28537 14 ft 34 kts 270°
2026-05-05 23:28 25.91116 -80.28750 18 ft 25 kts 307°
2026-05-05 23:28 25.91124 -80.28810 18 ft 0 kts 232°
2026-05-05 23:29 25.91111 -80.28826 17 ft 10 kts 220°
2026-05-05 23:29 25.91034 -80.28825 15 ft 20 kts 119°
2026-05-05 23:29 25.90864 -80.28529 34 ft 65 kts 118°
2026-05-05 23:29 25.90555 -80.28074 232 ft 76 kts 124°
2026-05-05 23:30 25.90216 -80.27676 616 ft 65 kts 129°
2026-05-05 23:30 25.89788 -80.27437 822 ft 81 kts 169°
2026-05-05 23:30 25.89215 -80.27578 1037 ft 89 kts 207°
2026-05-05 23:30 25.88776 -80.28113 1255 ft 101 kts 249°
2026-05-05 23:31 25.88622 -80.28866 1545 ft 95 kts 264°
2026-05-05 23:31 25.88532 -80.29567 1829 ft 89 kts 265°
2026-05-05 23:31 25.88466 -80.30263 2081 ft 91 kts 266°
2026-05-05 23:31 25.88418 -80.30966 2362 ft 91 kts 267°
2026-05-05 23:32 25.88380 -80.31642 2627 ft 85 kts 271°
2026-05-05 23:32 25.88346 -80.32284 2900 ft 84 kts 266°
2026-05-05 23:32 25.88286 -80.32991 3043 ft 97 kts 268°
2026-05-05 23:32 25.88241 -80.33767 3089 ft 106 kts 269°
2026-05-05 23:33 25.88217 -80.34616 3098 ft 114 kts 271°
2026-05-05 23:33 25.88212 -80.35521 3103 ft 120 kts 272°
2026-05-05 23:33 25.88187 -80.36457 3104 ft 122 kts 270°
2026-05-05 23:33 25.88168 -80.37408 3085 ft 126 kts 271°
2026-05-05 23:34 25.88158 -80.38392 3044 ft 128 kts 272°
2026-05-05 23:34 25.88145 -80.39367 3049 ft 127 kts 271°
2026-05-05 23:34 25.88094 -80.40340 3030 ft 127 kts 269°
2026-05-05 23:34 25.88046 -80.41330 3016 ft 127 kts 269°
2026-05-05 23:35 25.88009 -80.42298 3030 ft 126 kts 270°
2026-05-05 23:35 25.87944 -80.43277 3023 ft 128 kts 265°
2026-05-05 23:35 25.87801 -80.44248 3052 ft 126 kts 263°
2026-05-05 23:35 25.87652 -80.45218 3049 ft 128 kts 261°
2026-05-05 23:36 25.87444 -80.46170 3063 ft 127 kts 259°
2026-05-05 23:36 25.87360 -80.47141 3066 ft 126 kts 267°
2026-05-05 23:36 25.87301 -80.48110 3082 ft 125 kts 269°
2026-05-05 23:36 25.87252 -80.49084 3059 ft 127 kts 269°
2026-05-05 23:37 25.87206 -80.50061 3069 ft 126 kts 269°
2026-05-05 23:37 25.87158 -80.51021 3084 ft 125 kts 269°
2026-05-05 23:37 25.87108 -80.51994 3065 ft 127 kts 268°
2026-05-05 23:37 25.87050 -80.52971 3062 ft 126 kts 268°
2026-05-05 23:38 25.87002 -80.53939 3058 ft 125 kts 268°
2026-05-05 23:38 25.86947 -80.54901 3075 ft 124 kts 267°
2026-05-05 23:38 25.86922 -80.55866 3059 ft 126 kts 270°
2026-05-05 23:38 25.86918 -80.56824 3075 ft 125 kts 272°
2026-05-05 23:39 25.86929 -80.57791 3084 ft 125 kts 272°
2026-05-05 23:39 25.86909 -80.58760 3097 ft 125 kts 263°
2026-05-05 23:39 25.86632 -80.59677 3092 ft 126 kts 241°
2026-05-05 23:39 25.86055 -80.60409 3054 ft 129 kts 218°
2026-05-05 23:40 25.85290 -80.60905 3079 ft 125 kts 207°
2026-05-05 23:40 25.84495 -80.61319 3068 ft 127 kts 202°
2026-05-05 23:40 25.83659 -80.61649 3074 ft 126 kts 198°
2026-05-05 23:40 25.82841 -80.61959 3067 ft 127 kts 200°
2026-05-05 23:41 25.82011 -80.62328 3038 ft 128 kts 203°
2026-05-05 23:41 25.81212 -80.62737 3058 ft 125 kts 206°
2026-05-05 23:41 25.80420 -80.63173 3030 ft 128 kts 203°
2026-05-05 23:41 25.79557 -80.63434 3021 ft 129 kts 186°
2026-05-05 23:42 25.78679 -80.63393 3030 ft 127 kts 174°
2026-05-05 23:42 25.77807 -80.63245 3027 ft 126 kts 167°
2026-05-05 23:42 25.76964 -80.63029 3036 ft 125 kts 166°
2026-05-05 23:42 25.76108 -80.62825 3018 ft 126 kts 167°
2026-05-05 23:43 25.75243 -80.62640 3034 ft 125 kts 171°
2026-05-05 23:43 25.74370 -80.62621 3003 ft 128 kts 181°
2026-05-05 23:43 25.73480 -80.62626 3024 ft 126 kts 176°
2026-05-05 23:43 25.72611 -80.62594 3021 ft 126 kts 179°
2026-05-05 23:44 25.71736 -80.62589 3037 ft 125 kts 181°
2026-05-05 23:44 25.70865 -80.62649 3012 ft 126 kts 186°
2026-05-05 23:44 25.69986 -80.62780 2992 ft 127 kts 187°
2026-05-05 23:44 25.69116 -80.62875 3023 ft 124 kts 184°
2026-05-05 23:45 25.68235 -80.62952 2980 ft 128 kts 182°
2026-05-05 23:45 25.67356 -80.62995 2964 ft 129 kts 181°
2026-05-05 23:45 25.66431 -80.63025 2836 ft 135 kts 179°
2026-05-05 23:45 25.65474 -80.63044 2705 ft 140 kts 180°
2026-05-05 23:46 25.64487 -80.63128 2530 ft 142 kts 184°
2026-05-05 23:46 25.63516 -80.63225 2389 ft 140 kts 183°
2026-05-05 23:46 25.62554 -80.63283 2296 ft 136 kts 181°
2026-05-05 23:46 25.61616 -80.63333 2229 ft 133 kts 182°
2026-05-05 23:47 25.60703 -80.63401 2155 ft 132 kts 182°
2026-05-05 23:47 25.59774 -80.63443 2045 ft 134 kts 181°
2026-05-05 23:47 25.58866 -80.63490 2073 ft 127 kts 182°
2026-05-05 23:47 25.58002 -80.63542 2070 ft 125 kts 182°
2026-05-05 23:48 25.57110 -80.63576 1987 ft 129 kts 180°
2026-05-05 23:48 25.56231 -80.63625 1996 ft 124 kts 182°
2026-05-05 23:48 25.55374 -80.63685 2011 ft 123 kts 183°
2026-05-05 23:48 25.54532 -80.63747 2017 ft 123 kts 182°
2026-05-05 23:49 25.53658 -80.63813 1919 ft 130 kts 182°
2026-05-05 23:49 25.52782 -80.63877 1985 ft 122 kts 182°
2026-05-05 23:49 25.51956 -80.63952 2047 ft 116 kts 183°
2026-05-05 23:49 25.51158 -80.64025 2090 ft 115 kts 182°
2026-05-05 23:50 25.50359 -80.64082 2074 ft 118 kts 181°
2026-05-05 23:50 25.49514 -80.64196 1997 ft 125 kts 199°
2026-05-05 23:50 25.49063 -80.64579 2001 ft 124 kts 230°
2026-05-05 23:50 25.48801 -80.65769 2055 ft 119 kts 269°
2026-05-05 23:51 25.48778 -80.66683 2080 ft 120 kts 268°
2026-05-05 23:51 25.48758 -80.67314 2055 ft 121 kts 268°
2026-05-05 23:51 25.48902 -80.68202 2018 ft 121 kts 302°
2026-05-05 23:51 25.49547 -80.68739 2054 ft 115 kts 344°
2026-05-05 23:52 25.50325 -80.68697 2028 ft 116 kts 24°
2026-05-05 23:52 25.50822 -80.68037 2007 ft 114 kts 76°
2026-05-05 23:52 25.50762 -80.67169 2017 ft 111 kts 102°
2026-05-05 23:52 25.50601 -80.66358 2101 ft 106 kts 98°
2026-05-05 23:53 25.50532 -80.65532 2079 ft 112 kts 91°
2026-05-05 23:53 25.50525 -80.64652 2011 ft 115 kts 91°
2026-05-05 23:53 25.50467 -80.63794 2016 ft 111 kts 96°
2026-05-05 23:53 25.50211 -80.63022 2016 ft 110 kts 131°
2026-05-05 23:54 25.49505 -80.62750 1997 ft 113 kts 184°
2026-05-05 23:54 25.48851 -80.63195 1992 ft 115 kts 234°
2026-05-05 23:54 25.48670 -80.64046 2017 ft 114 kts 270°
2026-05-05 23:54 25.48677 -80.64907 2060 ft 112 kts 270°
2026-05-05 23:55 25.48667 -80.65781 2055 ft 115 kts 268°
2026-05-05 23:55 25.48650 -80.66695 1971 ft 120 kts 268°
2026-05-05 23:55 25.48642 -80.67612 1806 ft 117 kts 270°
2026-05-05 23:55 25.48922 -80.68386 1624 ft 109 kts 320°
2026-05-05 23:56 25.49596 -80.68571 1530 ft 98 kts 14°
2026-05-05 23:56 25.50050 -80.68097 1498 ft 92 kts 70°
2026-05-05 23:56 25.50108 -80.67427 1563 ft 82 kts 90°
2026-05-05 23:56 25.50095 -80.66814 1614 ft 78 kts 91°
2026-05-05 23:57 25.50092 -80.66211 1629 ft 76 kts 91°
2026-05-05 23:57 25.50116 -80.65597 1569 ft 85 kts 87°
2026-05-05 23:57 25.50138 -80.64939 1546 ft 85 kts 89°
2026-05-05 23:57 25.50150 -80.64282 1511 ft 85 kts 88°
2026-05-05 23:58 25.50156 -80.63645 1499 ft 81 kts 90°
2026-05-05 23:58 25.50160 -80.63010 1375 ft 84 kts 89°
2026-05-05 23:58 25.50176 -80.62343 1211 ft 87 kts 89°
2026-05-05 23:58 25.50202 -80.61689 1070 ft 84 kts 88°
2026-05-05 23:59 25.50209 -80.61057 908 ft 80 kts 90°
2026-05-05 23:59 25.50216 -80.60457 820 ft 71 kts 90°
2026-05-05 23:59 25.50220 -80.59930 733 ft 71 kts 90°
2026-05-05 23:59 25.50216 -80.59371 620 ft 73 kts 88°
2026-05-06 00:00 25.50214 -80.58800 518 ft 73 kts 89°
2026-05-06 00:00 25.50204 -80.58249 404 ft 69 kts 92°
2026-05-06 00:00 25.50139 -80.57736 354 ft 72 kts 111°
2026-05-06 00:00 25.49687 -80.57537 339 ft 77 kts 183°
2026-05-06 00:01 25.49158 -80.57669 442 ft 79 kts 186°
2026-05-06 00:01 25.48594 -80.57786 434 ft 84 kts 183°
2026-05-06 00:01 25.48090 -80.57549 375 ft 83 kts 122°
2026-05-06 00:01 25.48013 -80.56962 310 ft 75 kts 90°
2026-05-06 00:02 25.47981 -80.56399 259 ft 73 kts 91°
2026-05-06 00:02 25.48064 -80.55886 234 ft 72 kts 58°
2026-05-06 00:02 25.48504 -80.55644 133 ft 77 kts 359°
2026-05-06 00:02 25.49006 -80.55697 36 ft 67 kts
2026-05-06 00:03 25.49418 -80.55703 16 ft 51 kts
2026-05-06 00:03 25.49726 -80.55702 14 ft 38 kts 359°
2026-05-06 00:03 25.49967 -80.55705 14 ft 32 kts 359°
2026-05-06 00:03 25.50172 -80.55704 15 ft 24 kts 26°
2026-05-06 00:04 25.50203 -80.55552 15 ft 17 kts 91°
2026-05-06 00:04 25.50229 -80.55506 15 ft 0 kts 345°
2026-05-06 00:05 25.50273 -80.55413 15 ft 34 kts 88°
2026-05-06 00:05 25.50261 -80.54983 67 ft 71 kts 91°
2026-05-06 00:05 25.50232 -80.54413 354 ft 70 kts 92°
2026-05-06 00:06 25.50177 -80.53901 629 ft 70 kts 92°
2026-05-06 00:06 25.50325 -80.53384 904 ft 73 kts 60°
2026-05-06 00:06 25.50740 -80.53094 1179 ft 77 kts 10°
2026-05-06 00:06 25.51287 -80.53361 1407 ft 96 kts 317°
2026-05-06 00:07 25.51601 -80.53981 1760 ft 92 kts 291°
2026-05-06 00:07 25.51851 -80.54624 2015 ft 92 kts 292°
2026-05-06 00:07 25.52128 -80.55315 2053 ft 104 kts 293°
2026-05-06 00:07 25.52401 -80.56100 2089 ft 111 kts 290°
2026-05-06 00:08 25.52675 -80.56917 2053 ft 120 kts 291°
2026-05-06 00:08 25.53002 -80.57803 1996 ft 126 kts 292°
2026-05-06 00:08 25.53342 -80.58703 1978 ft 126 kts 292°
2026-05-06 00:08 25.53672 -80.59624 1896 ft 132 kts 290°
2026-05-06 00:09 25.53992 -80.60588 1782 ft 137 kts 291°
2026-05-06 00:09 25.54339 -80.61515 1898 ft 124 kts 294°
2026-05-06 00:09 25.54680 -80.62363 1958 ft 121 kts 299°
2026-05-06 00:09 25.55280 -80.63003 1999 ft 119 kts 326°
2026-05-06 00:10 25.56007 -80.63445 2005 ft 122 kts 338°
2026-05-06 00:10 25.56829 -80.63719 1971 ft 124 kts 351°
2026-05-06 00:10 25.57701 -80.63751 1846 ft 128 kts
2026-05-06 00:10 25.58558 -80.63447 1727 ft 127 kts 25°
2026-05-06 00:11 25.59336 -80.63045 1691 ft 120 kts 29°
2026-05-06 00:11 25.60051 -80.62640 1677 ft 116 kts 27°
2026-05-06 00:11 25.60799 -80.62263 1596 ft 119 kts 27°
2026-05-06 00:11 25.61541 -80.61858 1537 ft 116 kts 28°
2026-05-06 00:12 25.62243 -80.61475 1591 ft 109 kts 28°
2026-05-06 00:12 25.62920 -80.61090 1548 ft 114 kts 30°
2026-05-06 00:12 25.63406 -80.60404 1474 ft 115 kts 73°
2026-05-06 00:12 25.63579 -80.59599 1597 ft 104 kts 79°
2026-05-06 00:13 25.63666 -80.58803 1627 ft 107 kts 86°
2026-05-06 00:13 25.63699 -80.57957 1580 ft 110 kts 88°
2026-05-06 00:13 25.63714 -80.57097 1521 ft 112 kts 90°
2026-05-06 00:13 25.63728 -80.56325 1479 ft 86 kts 89°
2026-05-06 00:14 25.63765 -80.55689 1489 ft 81 kts 86°
2026-05-06 00:14 25.63811 -80.55081 1519 ft 80 kts 86°
2026-05-06 00:14 25.63846 -80.54456 1527 ft 79 kts 88°
2026-05-06 00:14 25.63878 -80.53841 1522 ft 79 kts 86°
2026-05-06 00:15 25.63905 -80.53294 1629 ft 71 kts 87°
2026-05-06 00:15 25.63928 -80.52717 1550 ft 77 kts 86°
2026-05-06 00:15 25.63941 -80.52112 1422 ft 78 kts 87°
2026-05-06 00:15 25.63978 -80.51515 1327 ft 78 kts 84°
2026-05-06 00:16 25.63989 -80.50928 1250 ft 75 kts 87°
2026-05-06 00:16 25.64001 -80.50346 1140 ft 77 kts 86°
2026-05-06 00:16 25.64052 -80.49732 999 ft 80 kts 85°
2026-05-06 00:16 25.64043 -80.49143 904 ft 73 kts 94°
2026-05-06 00:17 25.64066 -80.48593 798 ft 72 kts 85°
2026-05-06 00:17 25.64142 -80.48035 686 ft 72 kts 84°
2026-05-06 00:17 25.64195 -80.47511 642 ft 66 kts 89°
2026-05-06 00:17 25.64184 -80.47010 560 ft 66 kts 93°
2026-05-06 00:18 25.64156 -80.46512 475 ft 61 kts 85°
2026-05-06 00:18 25.64201 -80.46035 333 ft 65 kts 79°
2026-05-06 00:18 25.64241 -80.45549 282 ft 64 kts 88°
2026-05-06 00:18 25.64254 -80.45037 217 ft 68 kts 88°
2026-05-06 00:19 25.64272 -80.44512 105 ft 64 kts 83°
2026-05-06 00:19 25.64295 -80.44072 25 ft 51 kts 83°
2026-05-06 00:19 25.64318 -80.43730 14 ft 38 kts 86°
2026-05-06 00:19 25.64317 -80.43338 49 ft 69 kts 89°
2026-05-06 00:20 25.64286 -80.42765 311 ft 73 kts 94°
2026-05-06 00:20 25.64210 -80.42238 568 ft 72 kts 94°
2026-05-06 00:20 25.64353 -80.41697 801 ft 75 kts 52°
2026-05-06 00:20 25.64842 -80.41539 1071 ft 84 kts 355°
2026-05-06 00:21 25.65362 -80.41856 1372 ft 91 kts 320°
2026-05-06 00:21 25.65588 -80.42514 1663 ft 95 kts 278°
2026-05-06 00:21 25.65729 -80.43270 1892 ft 100 kts 290°
2026-05-06 00:21 25.65971 -80.43980 2031 ft 102 kts 295°
2026-05-06 00:22 25.66218 -80.44737 2095 ft 107 kts 292°
2026-05-06 00:22 25.66470 -80.45546 2103 ft 115 kts 291°
2026-05-06 00:22 25.66716 -80.46416 2151 ft 120 kts 289°
2026-05-06 00:22 25.66891 -80.47328 2196 ft 121 kts 285°
2026-05-06 00:23 25.66974 -80.48269 2130 ft 130 kts 268°
2026-05-06 00:23 25.66878 -80.49292 2033 ft 136 kts 263°
2026-05-06 00:23 25.66731 -80.50312 2015 ft 132 kts 262°
2026-05-06 00:23 25.66591 -80.51307 2054 ft 130 kts 262°
2026-05-06 00:24 25.66455 -80.52302 2019 ft 133 kts 262°
2026-05-06 00:24 25.66328 -80.53336 1973 ft 136 kts 264°
2026-05-06 00:24 25.66216 -80.54360 1992 ft 131 kts 263°
2026-05-06 00:24 25.66122 -80.55356 1965 ft 129 kts 264°
2026-05-06 00:25 25.66025 -80.56343 1991 ft 128 kts 264°
2026-05-06 00:25 25.65905 -80.57316 1986 ft 129 kts 262°
2026-05-06 00:25 25.65788 -80.58313 1915 ft 132 kts 261°
2026-05-06 00:25 25.65729 -80.59339 1873 ft 133 kts 272°
2026-05-06 00:26 25.65952 -80.60295 1932 ft 125 kts 298°
2026-05-06 00:26 25.66483 -80.61020 2027 ft 117 kts 326°
2026-05-06 00:26 25.67215 -80.61338 2075 ft 113 kts 358°
2026-05-06 00:26 25.67998 -80.61466 2070 ft 117 kts 355°
2026-05-06 00:27 25.68807 -80.61603 2119 ft 113 kts 357°
2026-05-06 00:27 25.69584 -80.61715 2132 ft 116 kts 357°
2026-05-06 00:27 25.70393 -80.61824 2167 ft 116 kts 358°
2026-05-06 00:27 25.71218 -80.61972 2117 ft 123 kts 354°
2026-05-06 00:28 25.72053 -80.62172 2120 ft 122 kts 353°
2026-05-06 00:28 25.72865 -80.62358 2151 ft 119 kts 353°
2026-05-06 00:28 25.73705 -80.62544 2076 ft 125 kts 354°
2026-05-06 00:28 25.74558 -80.62715 2022 ft 125 kts 354°
2026-05-06 00:29 25.75413 -80.62883 2042 ft 123 kts 354°
2026-05-06 00:29 25.76255 -80.63058 2060 ft 121 kts 353°
2026-05-06 00:29 25.77083 -80.63207 2008 ft 125 kts 356°
2026-05-06 00:29 25.77964 -80.63342 1941 ft 128 kts 357°
2026-05-06 00:30 25.78871 -80.63477 1809 ft 134 kts 357°
2026-05-06 00:30 25.79787 -80.63611 1725 ft 134 kts 357°
2026-05-06 00:30 25.80703 -80.63747 1678 ft 132 kts 358°
2026-05-06 00:30 25.81613 -80.63848 1650 ft 128 kts
2026-05-06 00:31 25.82454 -80.63738 1702 ft 118 kts 20°
2026-05-06 00:31 25.83205 -80.63344 1567 ft 123 kts 39°
2026-05-06 00:31 25.83789 -80.62710 1663 ft 107 kts 52°
2026-05-06 00:31 25.84236 -80.62081 1756 ft 104 kts 55°
2026-05-06 00:32 25.84729 -80.61439 1718 ft 114 kts 52°
2026-05-06 00:32 25.85242 -80.60749 1653 ft 114 kts 53°
2026-05-06 00:32 25.85740 -80.60087 1711 ft 109 kts 53°
2026-05-06 00:32 25.86234 -80.59444 1682 ft 112 kts 54°
2026-05-06 00:33 25.86733 -80.58746 1641 ft 115 kts 56°
2026-05-06 00:33 25.87193 -80.58076 1742 ft 106 kts 54°
2026-05-06 00:33 25.87666 -80.57424 1673 ft 113 kts 54°
2026-05-06 00:33 25.88175 -80.56717 1550 ft 120 kts 56°
2026-05-06 00:34 25.88664 -80.56037 1664 ft 108 kts 54°
2026-05-06 00:34 25.89142 -80.55393 1698 ft 109 kts 55°
2026-05-06 00:34 25.89528 -80.54660 1683 ft 111 kts 70°
2026-05-06 00:34 25.89797 -80.53840 1663 ft 112 kts 73°
2026-05-06 00:35 25.89989 -80.53021 1672 ft 111 kts 83°
2026-05-06 00:35 25.90074 -80.52175 1692 ft 109 kts 84°
2026-05-06 00:35 25.90114 -80.51328 1661 ft 111 kts 86°
2026-05-06 00:35 25.90159 -80.50480 1709 ft 108 kts 86°
2026-05-06 00:36 25.90194 -80.49646 1704 ft 110 kts 85°
2026-05-06 00:36 25.90253 -80.48793 1641 ft 113 kts 84°
2026-05-06 00:36 25.90321 -80.47940 1700 ft 109 kts 84°
2026-05-06 00:36 25.90384 -80.47101 1749 ft 109 kts 84°
2026-05-06 00:37 25.90447 -80.46242 1687 ft 116 kts 84°
2026-05-06 00:37 25.90514 -80.45335 1567 ft 119 kts 85°
2026-05-06 00:37 25.90553 -80.44469 1669 ft 106 kts 86°
2026-05-06 00:37 25.90593 -80.43663 1717 ft 108 kts 85°
2026-05-06 00:38 25.90615 -80.42797 1656 ft 115 kts 87°
2026-05-06 00:38 25.90627 -80.42213 1655 ft 112 kts 87°
2026-05-06 00:38 25.90656 -80.41362 1694 ft 107 kts 86°
2026-05-06 00:38 25.90689 -80.40529 1722 ft 107 kts 85°
2026-05-06 00:39 25.90720 -80.39717 1694 ft 109 kts 88°
2026-05-06 00:39 25.90717 -80.38883 1552 ft 99 kts 87°
2026-05-06 00:39 25.90720 -80.38232 1612 ft 77 kts 83°
2026-05-06 00:39 25.90759 -80.37654 1608 ft 72 kts 82°
2026-05-06 00:40 25.90831 -80.37099 1504 ft 75 kts 81°
2026-05-06 00:40 25.90906 -80.36534 1345 ft 74 kts 81°
2026-05-06 00:40 25.90926 -80.35970 1271 ft 69 kts 86°
2026-05-06 00:40 25.90922 -80.35448 1169 ft 69 kts 85°
2026-05-06 00:41 25.90923 -80.34924 1041 ft 69 kts 85°
2026-05-06 00:41 25.90963 -80.34415 943 ft 65 kts 81°
2026-05-06 00:41 25.90987 -80.33887 817 ft 70 kts 85°
2026-05-06 00:41 25.91028 -80.33384 811 ft 64 kts 83°
2026-05-06 00:42 25.91067 -80.32897 744 ft 63 kts 84°
2026-05-06 00:42 25.91083 -80.32413 663 ft 65 kts 84°
2026-05-06 00:42 25.91125 -80.31909 553 ft 63 kts 78°
2026-05-06 00:42 25.91144 -80.31399 492 ft 70 kts 85°
2026-05-06 00:43 25.91179 -80.30859 428 ft 71 kts 87°
2026-05-06 00:43 25.91185 -80.30300 280 ft 74 kts 81°
2026-05-06 00:43 25.91227 -80.29765 190 ft 66 kts 86°
2026-05-06 00:43 25.91248 -80.29261 103 ft 63 kts 82°
2026-05-06 00:44 25.91268 -80.28795 35 ft 55 kts 81°
2026-05-06 00:44 25.91288 -80.28413 13 ft 43 kts 81°
2026-05-06 00:44 25.91300 -80.28132 9 ft 32 kts 87°
2026-05-06 00:44 25.91291 -80.27924 9 ft 21 kts 128°
2026-05-06 00:45 25.91231 -80.27903 9 ft 0 kts 197°
2026-05-06 00:45 25.91227 -80.27903 9 ft 5 kts 174°
2026-05-06 00:45 25.91155 -80.27903 10 ft 15 kts 172°
2026-05-06 00:45 25.91123 -80.27815 12 ft 14 kts 86°
2026-05-06 00:46 25.91127 -80.27708 14 ft 14 kts 88°
2026-05-06 00:46 25.91134 -80.27590 13 ft 16 kts 87°
2026-05-06 00:46 25.91141 -80.27459 14 ft 17 kts 86°
2026-05-06 00:46 25.91147 -80.27330 17 ft 16 kts 88°
2026-05-06 00:47 25.91154 -80.27202 19 ft 17 kts 85°
2026-05-06 00:47 25.91160 -80.27061 17 ft 20 kts 87°
2026-05-06 00:47 25.91167 -80.26905 16 ft 21 kts 89°
2026-05-06 00:47 25.91175 -80.26745 17 ft 21 kts 86°
2026-05-06 00:48 25.91184 -80.26582 12 ft 15 kts 87°
2026-05-06 00:48 25.91104 -80.26532 12 ft 16 kts 179°
2026-05-06 00:48 25.91000 -80.26530 15 ft 14 kts 180°
2026-05-06 00:48 25.90910 -80.26566 15 ft 16 kts 258°
2026-05-06 00:49 25.90881 -80.26618 15 ft 5 kts 174°
2026-05-06 00:49 25.90880 -80.26618 15 ft 0 kts 175°